Weather History for Lille, France

Change the Weather History Date:

Monday, October 24, 2011

  Actual Average Record
Temperature  
Mean Temperature 50 °F -  
Max Temperature 59 °F 50 °F 64 °F (2004)
Min Temperature 41 °F 40 °F 26 °F (2003)
Degree Days  
Heating Degree Days 15    
Moisture  
Dew Point 43 °F    
Average Humidity 77    
Maximum Humidity 93    
Minimum Humidity 54    
Precipitation  
Precipitation 0.00 in - - ()
Sea Level Pressure  
Sea Level Pressure 29.57 in    
Wind  
Wind Speed 10 mph ()    
Max Wind Speed 17 mph    
Max Gust Speed -    
Visibility 5.9 miles    
Events      
Averages and records for this station are not official NWS values.
T = Trace of Precipitation, MM = Missing Value Source: Averaged Metar Reports

Daily Weather History Graph

Daily Weather History Graph

Search for Another Location

Airport:

Trip Planner

Search our weather history database for the weather conditions in past years. The results will help you decide how hot, cold, wet, or windy it might be!

Date:

Astronomy

Oct. 24, 2011 Rise Set
Actual Time 8:24 AM CEST 6:38 PM CEST
Civil Twilight 7:50 AM CEST 7:12 PM CEST
Nautical Twilight 7:12 AM CEST 7:50 PM CEST
Astronomical Twilight 6:34 AM CEST 8:27 PM CEST
Moon 5:09 AM CEST (10/24) 5:05 PM CEST (10/24)
Length of Visible Light 11h 21m
Length of Day
10h 14m
Waning Crescent, 9% of the Moon is Illuminated
Oct 24
Waning Crescent
Oct 26
New
Nov 2
First Quarter
Nov 10
Full
Nov 18
Last Quarter

Hourly Weather History & Observations

Time (CEST) Temp. Windchill Dew Point Humidity Pressure Visibility Wind Dir Wind Speed Gust Speed Precip Events Conditions
12:00 AM 46.4 °F 42.4 °F 42.8 °F 87% 29.77 in - SE 8.1 mph - N/A   Clear
1:00 AM 46.4 °F 41.5 °F 42.8 °F 87% 29.74 in - SE 10.4 mph - N/A   Clear
2:00 AM 47 °F - 42 °F 78% 29.75 in 9 mi SE 9.2 mph - -   Clear
2:00 AM 46.4 °F 41.9 °F 42.8 °F 87% 29.74 in - SE 9.2 mph - N/A   Clear
2:30 AM 46.4 °F 41.9 °F 42.8 °F 87% 29.74 in 6.2 mi SE 9.2 mph - N/A   Unknown
3:00 AM 44.6 °F 40.2 °F 41.0 °F 87% 29.71 in 6.2 mi SE 8.1 mph - N/A   Unknown
3:30 AM 44.6 °F 39.2 °F 41.0 °F 87% 29.71 in 6.2 mi SE 10.4 mph - N/A   Unknown
4:00 AM 44.6 °F 39.7 °F 41.0 °F 87% 29.68 in 6.2 mi SE 9.2 mph - N/A   Unknown
4:30 AM 44.6 °F 39.2 °F 41.0 °F 87% 29.68 in 6.2 mi SE 10.4 mph - N/A   Unknown
5:00 AM 42.8 °F 38.6 °F 39.2 °F 87% 29.68 in - ESE 6.9 mph - N/A   Clear
5:30 AM 42.8 °F 38.0 °F 39.2 °F 87% 29.65 in - SE 8.1 mph - N/A   Clear
6:00 AM 42.8 °F 39.3 °F 39.2 °F 87% 29.65 in - SE 5.8 mph - N/A   Clear
6:30 AM 42.8 °F 38.0 °F 39.2 °F 87% 29.65 in - SE 8.1 mph - N/A   Clear
7:00 AM 41.0 °F 35.2 °F 39.2 °F 93% 29.65 in 5.6 mi ESE 9.2 mph - N/A   Unknown
7:30 AM 42.8 °F 38.6 °F 39.2 °F 87% 29.65 in 5.6 mi ESE 6.9 mph - N/A   Unknown
8:00 AM 41 °F - 39 °F 88% 29.66 in 5 mi ESE 8.1 mph - -   Partly Cloudy
8:00 AM 41.0 °F 35.2 °F 39.2 °F 93% 29.65 in 5.0 mi SE 9.2 mph - N/A   Unknown
8:30 AM 41.0 °F 37.1 °F 37.4 °F 87% 29.62 in 3.7 mi ESE 5.8 mph - N/A   Unknown
9:00 AM 41.0 °F 34.7 °F 39.2 °F 93% 29.62 in 3.7 mi ESE 10.4 mph - N/A   Unknown
9:30 AM 42.8 °F 37.0 °F 39.2 °F 87% 29.62 in 4.3 mi ESE 10.4 mph - N/A   Unknown
10:00 AM 44.6 °F 38.8 °F 41.0 °F 87% 29.62 in 5.0 mi ESE 11.5 mph - N/A   Unknown
10:30 AM 46.4 °F 41.5 °F 41.0 °F 81% 29.62 in 5.0 mi ESE 10.4 mph - N/A   Unknown
11:00 AM 48.2 °F - 41.0 °F 76% 29.59 in 5.0 mi SE 11.5 mph - N/A   Unknown
11:30 AM 50.0 °F - 42.8 °F 76% 29.59 in - SE 11.5 mph - N/A   Clear
12:00 PM 51.8 °F - 42.8 °F 71% 29.59 in - SE 16.1 mph - N/A   Clear
12:30 PM 53.6 °F - 44.6 °F 72% 29.59 in - SE 15.0 mph - N/A   Clear
1:00 PM 55.4 °F - 44.6 °F 67% 29.56 in - SE 13.8 mph - N/A   Clear
1:30 PM 55.4 °F - 44.6 °F 67% 29.56 in - SE 15.0 mph - N/A   Clear
2:00 PM 57 °F - 45 °F 54% 29.54 in 7 mi ESE 17.3 mph - -   Clear
2:00 PM 57.2 °F - 44.6 °F 63% 29.53 in - ESE 16.1 mph - N/A   Clear
2:30 PM 59.0 °F - 46.4 °F 63% 29.50 in - SE 17.3 mph - N/A   Clear
3:00 PM 59.0 °F - 46.4 °F 63% 29.50 in - ESE 17.3 mph - N/A   Clear
3:30 PM 59.0 °F - 46.4 °F 63% 29.47 in - SE 17.3 mph - N/A   Clear
4:00 PM 59.0 °F - 46.4 °F 63% 29.47 in - SE 15.0 mph - N/A   Clear
4:30 PM 60.8 °F - 46.4 °F 59% 29.47 in - SE 15.0 mph - N/A   Clear
5:00 PM 59.0 °F - 46.4 °F 63% 29.47 in - SE 17.3 mph - N/A   Clear
5:30 PM 57.2 °F - 46.4 °F 67% 29.47 in - SE 16.1 mph - N/A   Clear
6:00 PM 57.2 °F - 46.4 °F 67% 29.47 in - SE 13.8 mph - N/A   Clear
6:30 PM 55.4 °F - 46.4 °F 72% 29.47 in - SE 12.7 mph - N/A   Clear
7:00 PM 53.6 °F - 46.4 °F 77% 29.47 in - ESE 11.5 mph - N/A   Clear
7:30 PM 53.6 °F - 46.4 °F 77% 29.47 in - ESE 10.4 mph - N/A   Clear
8:00 PM 53 °F - 46 °F 69% 29.48 in 12 mi ESE 11.5 mph - -   Clear
8:00 PM 53.6 °F - 46.4 °F 77% 29.47 in - ESE 11.5 mph - N/A   Clear
8:30 PM 53.6 °F - 46.4 °F 77% 29.47 in - ESE 10.4 mph - N/A   Clear
9:00 PM 53.6 °F - 46.4 °F 77% 29.44 in - ESE 11.5 mph - N/A   Clear
9:30 PM 51.8 °F - 44.6 °F 76% 29.44 in - SE 10.4 mph - N/A   Clear
10:00 PM 53.6 °F - 44.6 °F 72% 29.44 in - SE 11.5 mph - N/A   Clear
10:30 PM 53.6 °F - 46.4 °F 77% 29.44 in - SE 12.7 mph - N/A   Clear
11:00 PM 53.6 °F - 46.4 °F 77% 29.44 in - SE 10.4 mph - N/A   Clear
11:30 PM 55.4 °F - 46.4 °F 72% 29.47 in - SE 12.7 mph - N/A   Clear